,,PA_Meas_PMT16A,,PR_Meas_QMR101_102,,RH_Meas_QMH101,,SR_Meas_QMS101,,TA_Meas_QMH101,,GenWind,,GenWind,
time,status,PA,status,PR,status,RH,status,SR,status,TA,status,DirAvg,status,SpdAvg,
2009-09-24, 00:00:04,VALID,918.956,VALID,0,VALID,94.7438,VALID,0,VALID,20.7333,VALID,60,VALID,1.04492,
2009-09-24, 00:01:04,VALID,918.976,VALID,0,VALID,94.7514,VALID,0,VALID,20.7333,VALID,60,VALID,0.687109,
2009-09-24, 00:02:04,VALID,918.976,VALID,0,VALID,94.7286,VALID,0,VALID,20.7333,VALID,60,VALID,1.02188,
2009-09-24, 00:03:04,VALID,918.956,VALID,0,VALID,94.7057,VALID,0,VALID,20.7138,VALID,59,VALID,1.1375,
2009-09-24, 00:04:04,VALID,919.002,VALID,0,VALID,94.7438,VALID,0,VALID,20.7333,VALID,59,VALID,0.620703,
2009-09-24, 00:05:04,VALID,918.98,VALID,0,VALID,94.7819,VALID,0,VALID,20.7333,VALID,59,VALID,0.6875,
2009-09-24, 00:06:04,VALID,919.012,VALID,0,VALID,94.6371,VALID,0,VALID,20.7333,VALID,283,VALID,0.674609,
2009-09-24, 00:07:04,VALID,919.045,VALID,0,VALID,94.6371,VALID,0,VALID,20.7333,VALID,39,VALID,1.29492,
2009-09-24, 00:08:04,VALID,919.14,VALID,0,VALID,94.5456,VALID,0,VALID,20.7333,VALID,39,VALID,1.00547,
2009-09-24, 00:09:04,VALID,919.168,VALID,0,VALID,94.5685,VALID,0,VALID,20.7154,VALID,39,VALID,0.997656,
2009-09-24, 00:10:04,VALID,919.202,VALID,0,VALID,94.8277,VALID,0,VALID,20.7349,VALID,39,VALID,0.585547,
2009-09-24, 00:11:04,VALID,919.228,VALID,0,VALID,94.8582,VALID,0,VALID,20.6943,VALID,39,VALID,0.422266,
2009-09-24, 00:12:04,VALID,919.203,VALID,0,VALID,94.9344,VALID,0,VALID,20.7138,VALID,39,VALID,0.401172,
2009-09-24, 00:13:04,VALID,919.177,VALID,0,VALID,94.7896,VALID,0,VALID,20.7123,VALID,39,VALID,0.333594,
2009-09-24, 00:14:04,VALID,919.087,VALID,0,VALID,94.7896,VALID,0.107441,VALID,20.7333,VALID,39,VALID,0.270703,
2009-09-24, 00:15:04,VALID,919.05,VALID,0,VALID,94.9039,VALID,0,VALID,20.7528,VALID,39,VALID,0.921875,
2009-09-24, 00:16:04,VALID,919.017,VALID,0,VALID,94.8505,VALID,0,VALID,20.7528,VALID,39,VALID,1.03984,
2009-09-24, 00:17:04,VALID,918.99,VALID,0,VALID,94.7209,VALID,0,VALID,20.7333,VALID,32,VALID,1.66055,
2009-09-24, 00:18:04,VALID,918.963,VALID,0,VALID,94.7438,VALID,0,VALID,20.6943,VALID,23,VALID,1.41758,
2009-09-24, 00:19:04,VALID,918.956,VALID,0,VALID,94.6828,VALID,0,VALID,20.6342,VALID,23,VALID,1.56016,
2009-09-24, 00:20:04,VALID,918.991,VALID,0,VALID,94.9039,VALID,0,VALID,20.6163,VALID,23,VALID,1.1332,
2009-09-24, 00:21:04,VALID,919.012,VALID,0,VALID,95.0869,VALID,0,VALID,20.6179,VALID,23,VALID,0.800781,
2009-09-24, 00:22:04,VALID,919.03,VALID,0,VALID,95.1707,VALID,0,VALID,20.5968,VALID,23,VALID,0.792969,
2009-09-24, 00:23:04,VALID,919.04,VALID,0,VALID,95.2012,VALID,0,VALID,20.5968,VALID,23,VALID,0.753516,
2009-09-24, 00:24:04,VALID,919.031,VALID,0,VALID,95.0411,VALID,0,VALID,20.5773,VALID,23,VALID,0.852734,
2009-09-24, 00:25:04,VALID,918.982,VALID,0,VALID,95.0411,VALID,0,VALID,20.5773,VALID,23,VALID,1.26641,
2009-09-24, 00:26:04,VALID,918.988,VALID,0,VALID,95.0869,VALID,0,VALID,20.5578,VALID,23,VALID,0.840234,
2009-09-24, 00:27:04,VALID,918.948,VALID,0,VALID,95.1174,VALID,0,VALID,20.5789,VALID,23,VALID,0.916406,
2009-09-24, 00:28:04,VALID,918.899,VALID,0,VALID,95.1402,VALID,0,VALID,20.5789,VALID,23,VALID,0.444141,
2009-09-24, 00:29:04,VALID,918.852,VALID,0,VALID,95.064,VALID,0,VALID,20.5578,VALID,23,VALID,0.210938,
2009-09-24, 00:30:04,VALID,918.816,VALID,0,VALID,95.1479,VALID,0,VALID,20.5789,VALID,23,VALID,0.158984,
2009-09-24, 00:31:04,VALID,918.804,VALID,0,VALID,95.1479,VALID,0,VALID,20.6179,VALID,23,VALID,0.727734,
2009-09-24, 00:32:04,VALID,918.759,VALID,0,VALID,95.0945,VALID,0,VALID,20.6163,VALID,23,VALID,0.741016,
2009-09-24, 00:33:04,VALID,918.768,VALID,0,VALID,95.1097,VALID,0,VALID,20.6553,VALID,23,VALID,0.941016,
2009-09-24, 00:34:04,VALID,918.709,VALID,0,VALID,95.0564,VALID,0,VALID,20.6959,VALID,23,VALID,1.05273,
2009-09-24, 00:35:04,VALID,918.75,VALID,0,VALID,95.0564,VALID,0,VALID,20.7138,VALID,23,VALID,0.890625,
2009-09-24, 00:36:04,VALID,918.72,VALID,0,VALID,94.9801,VALID,0,VALID,20.7349,VALID,23,VALID,0.703125,
2009-09-24, 00:37:04,VALID,918.742,VALID,0,VALID,94.8734,VALID,0,VALID,20.7138,VALID,23,VALID,0.576563,
2009-09-24, 00:38:04,VALID,918.735,VALID,0,VALID,94.881,VALID,0,VALID,20.7349,VALID,23,VALID,0.630469,
2009-09-24, 00:39:04,VALID,918.728,VALID,0,VALID,94.9649,VALID,0,VALID,20.7138,VALID,23,VALID,0.181641,
2009-09-24, 00:40:04,VALID,918.737,VALID,0,VALID,94.7972,VALID,0,VALID,20.7349,VALID,23,VALID,0.154687,
2009-09-24, 00:41:04,VALID,918.708,VALID,0,VALID,94.7743,VALID,0,VALID,20.7154,VALID,23,VALID,0.436719,
2009-09-24, 00:42:04,VALID,918.722,VALID,0,VALID,94.9039,VALID,0,VALID,20.6748,VALID,23,VALID,0.696094,
2009-09-24, 00:43:04,VALID,918.716,VALID,0,VALID,94.9496,VALID,0,VALID,20.6748,VALID,23,VALID,0.523047,
2009-09-24, 00:44:04,VALID,918.704,VALID,0,VALID,94.8887,VALID,0,VALID,20.6553,VALID,23,VALID,0.616406,
2009-09-24, 00:45:04,VALID,918.712,VALID,0,VALID,94.9801,VALID,0,VALID,20.6163,VALID,23,VALID,0.519531,
2009-09-24, 00:46:04,VALID,918.662,VALID,0,VALID,94.9649,VALID,0,VALID,20.6163,VALID,23,VALID,0.355859,
2009-09-24, 00:47:04,VALID,918.667,VALID,0,VALID,95.0411,VALID,0,VALID,20.5968,VALID,23,VALID,0.295703,
2009-09-24, 00:48:04,VALID,918.661,VALID,0,VALID,95.0183,VALID,0,VALID,20.6374,VALID,23,VALID,0.117188,
2009-09-24, 00:49:05,VALID,918.653,VALID,0,VALID,94.9192,VALID,0.107441,VALID,20.6163,VALID,23,VALID,0.408984,
2009-09-24, 00:50:05,VALID,918.657,VALID,0,VALID,94.7743,VALID,0,VALID,20.6163,VALID,23,VALID,0.400781,
2009-09-24, 00:51:05,VALID,918.622,VALID,0,VALID,94.881,VALID,0,VALID,20.5968,VALID,23,VALID,0.425,
2009-09-24, 00:52:05,VALID,918.672,VALID,0,VALID,95.0183,VALID,0,VALID,20.6163,VALID,23,VALID,0.697656,
2009-09-24, 00:53:05,VALID,918.646,VALID,0,VALID,94.9344,VALID,0.107441,VALID,20.5968,VALID,23,VALID,0.674219,
2009-09-24, 00:54:05,VALID,918.637,VALID,0,VALID,94.9649,VALID,0,VALID,20.5968,VALID,23,VALID,0.809766,
2009-09-24, 00:55:05,VALID,918.636,VALID,0,VALID,95.0716,VALID,0,VALID,20.6163,VALID,23,VALID,0.408984,
2009-09-24, 00:56:05,VALID,918.618,VALID,0,VALID,94.881,VALID,0,VALID,20.6163,VALID,23,VALID,0.60625,
2009-09-24, 00:57:05,VALID,918.611,VALID,0,VALID,94.7362,VALID,0,VALID,20.5968,VALID,23,VALID,0.744531,
2009-09-24, 00:58:05,VALID,918.606,VALID,0,VALID,94.8124,VALID,0,VALID,20.5578,VALID,23,VALID,0.717578,
2009-09-24, 00:59:05,VALID,918.594,VALID,0,VALID,94.9039,VALID,0,VALID,20.5188,VALID,23,VALID,0.480469,
2009-09-24, 01:00:05,VALID,918.591,VALID,0,VALID,95.064,VALID,0,VALID,20.5383,VALID,23,VALID,0.257422,
2009-09-24, 01:01:05,VALID,918.558,VALID,0,VALID,94.9725,VALID,0,VALID,20.5383,VALID,23,VALID,0.273047,
2009-09-24, 01:02:05,VALID,918.534,VALID,0,VALID,95.0183,VALID,0,VALID,20.5188,VALID,23,VALID,0.149219,
2009-09-24, 01:03:05,VALID,918.536,VALID,0,VALID,95.1021,VALID,0,VALID,20.5383,VALID,23,VALID,0,
2009-09-24, 01:04:05,VALID,918.494,VALID,0,VALID,94.9725,VALID,0,VALID,20.5188,VALID,23,VALID,0,
2009-09-24, 01:05:05,VALID,918.469,VALID,0,VALID,94.8734,VALID,0,VALID,20.5188,VALID,23,VALID,0.133594,
2009-09-24, 01:06:05,VALID,918.47,VALID,0,VALID,94.9192,VALID,0,VALID,20.4993,VALID,23,VALID,0.241797,
2009-09-24, 01:07:05,VALID,918.476,VALID,0,VALID,94.9954,VALID,0,VALID,20.4798,VALID,23,VALID,0.430469,
2009-09-24, 01:08:05,VALID,918.448,VALID,0,VALID,95.1174,VALID,0,VALID,20.4993,VALID,23,VALID,0.605859,
2009-09-24, 01:09:05,VALID,918.453,VALID,0,VALID,95.125,VALID,0,VALID,20.4993,VALID,23,VALID,0.571094,
2009-09-24, 01:10:05,VALID,918.428,VALID,0,VALID,95.0564,VALID,0,VALID,20.4798,VALID,23,VALID,0.529297,
2009-09-24, 01:11:05,VALID,918.381,VALID,0,VALID,95.0106,VALID,0,VALID,20.4603,VALID,23,VALID,0.515625,
2009-09-24, 01:12:05,VALID,918.358,VALID,0,VALID,95.1326,VALID,0,VALID,20.4618,VALID,23,VALID,0.546875,
2009-09-24, 01:13:05,VALID,918.311,VALID,0,VALID,95.1326,VALID,0,VALID,20.4618,VALID,23,VALID,0.687109,
2009-09-24, 01:14:05,VALID,918.249,VALID,0,VALID,95.1555,VALID,0,VALID,20.4408,VALID,23,VALID,0.630859,
2009-09-24, 01:15:05,VALID,918.204,VALID,0,VALID,95.186,VALID,0,VALID,20.4213,VALID,23,VALID,0.779297,
2009-09-24, 01:16:05,VALID,918.131,VALID,0,VALID,95.3156,VALID,0,VALID,20.4423,VALID,23,VALID,1.03945,
2009-09-24, 01:17:05,VALID,918.082,VALID,0,VALID,95.3842,VALID,0,VALID,20.4408,VALID,23,VALID,1.06562,
2009-09-24, 01:18:05,VALID,918.018,VALID,0,VALID,95.4147,VALID,0,VALID,20.4798,VALID,23,VALID,1.11094,
2009-09-24, 01:19:05,VALID,918.037,VALID,0,VALID,95.3842,VALID,0,VALID,20.5204,VALID,23,VALID,0.748828,
2009-09-24, 01:20:05,VALID,918.016,VALID,0,VALID,95.1174,VALID,0,VALID,20.5188,VALID,23,VALID,0.998047,
2009-09-24, 01:21:05,VALID,918.012,VALID,0,VALID,95.125,VALID,0,VALID,20.5594,VALID,23,VALID,0.949609,
2009-09-24, 01:22:05,VALID,918.017,VALID,0,VALID,94.9801,VALID,0.107441,VALID,20.5383,VALID,23,VALID,0.994922,
2009-09-24, 01:23:05,VALID,917.992,VALID,0,VALID,95.1021,VALID,0.107441,VALID,20.5562,VALID,23,VALID,0.928125,
2009-09-24, 01:24:05,VALID,918.025,VALID,0,VALID,95.0564,VALID,0.107441,VALID,20.5367,VALID,23,VALID,0.729688,
2009-09-24, 01:25:05,VALID,918.017,VALID,0,VALID,95.1021,VALID,0.107441,VALID,20.5757,VALID,23,VALID,0.363281,
2009-09-24, 01:26:05,VALID,918.005,VALID,0,VALID,95.0945,VALID,0.107441,VALID,20.5968,VALID,23,VALID,0.337891,
2009-09-24, 01:27:05,VALID,918.026,VALID,0,VALID,95.003,VALID,0,VALID,20.5952,VALID,23,VALID,0.5625,
2009-09-24, 01:28:05,VALID,917.991,VALID,0,VALID,94.8887,VALID,0.107441,VALID,20.6358,VALID,23,VALID,0.732422,
2009-09-24, 01:29:05,VALID,918.006,VALID,0,VALID,94.7057,VALID,0.107441,VALID,20.6163,VALID,23,VALID,0.844531,
2009-09-24, 01:30:05,VALID,917.995,VALID,0,VALID,94.6523,VALID,0,VALID,20.5952,VALID,23,VALID,1.01211,
2009-09-24, 01:31:05,VALID,917.993,VALID,0,VALID,94.7438,VALID,0.107441,VALID,20.6358,VALID,23,VALID,1.10977,
2009-09-24, 01:32:05,VALID,918.013,VALID,0,VALID,94.7209,VALID,0.107441,VALID,20.6147,VALID,23,VALID,0.952734,
2009-09-24, 01:33:05,VALID,918.017,VALID,0,VALID,94.7209,VALID,0.107441,VALID,20.5757,VALID,23,VALID,1.10664,
2009-09-24, 01:34:05,VALID,918.037,VALID,0,VALID,94.8734,VALID,0.107441,VALID,20.5367,VALID,23,VALID,0.939453,
2009-09-24, 01:35:05,VALID,918.013,VALID,0,VALID,94.942,VALID,0,VALID,20.5367,VALID,23,VALID,0.985937,
2009-09-24, 01:36:05,VALID,918.022,VALID,0,VALID,95.1174,VALID,0.107441,VALID,20.5172,VALID,23,VALID,0.925781,
2009-09-24, 01:37:05,VALID,917.982,VALID,0,VALID,95.1021,VALID,0.107441,VALID,20.5188,VALID,23,VALID,0.805469,
2009-09-24, 01:38:05,VALID,917.983,VALID,0,VALID,94.9801,VALID,0,VALID,20.4798,VALID,23,VALID,0.946484,
2009-09-24, 01:39:05,VALID,917.944,VALID,0,VALID,95.125,VALID,0,VALID,20.4798,VALID,23,VALID,0.842969,
2009-09-24, 01:40:05,VALID,917.954,VALID,0,VALID,95.0564,VALID,0,VALID,20.4408,VALID,23,VALID,1.02031,
2009-09-24, 01:41:05,VALID,917.927,VALID,0,VALID,95.2851,VALID,0,VALID,20.4213,VALID,23,VALID,0.908984,
2009-09-24, 01:42:05,VALID,917.89,VALID,0,VALID,95.2241,VALID,0,VALID,20.4018,VALID,23,VALID,1.07969,
2009-09-24, 01:43:05,VALID,917.863,VALID,0,VALID,95.3461,VALID,0,VALID,20.3823,VALID,23,VALID,1.19102,
2009-09-24, 01:44:05,VALID,917.821,VALID,0,VALID,95.4909,VALID,0,VALID,20.3433,VALID,23,VALID,1.04766,
2009-09-24, 01:45:05,VALID,917.76,VALID,0,VALID,95.6357,VALID,0,VALID,20.3643,VALID,23,VALID,1.00898,
2009-09-24, 01:46:05,VALID,917.686,VALID,0,VALID,95.6357,VALID,0,VALID,20.3448,VALID,355,VALID,1.29414,
2009-09-24, 01:47:05,VALID,917.615,VALID,0,VALID,95.7425,VALID,0,VALID,20.3043,VALID,354,VALID,1.25977,
2009-09-24, 01:48:05,VALID,917.546,VALID,0,VALID,95.8492,VALID,0,VALID,20.2848,VALID,354,VALID,1.7418,
2009-09-24, 01:49:05,VALID,917.523,VALID,0,VALID,95.7882,VALID,0,VALID,20.2458,VALID,343,VALID,1.94375,
2009-09-24, 01:50:05,VALID,917.502,VALID,0,VALID,95.5595,VALID,0,VALID,20.1873,VALID,15,VALID,1.37344,
2009-09-24, 01:51:05,VALID,917.526,VALID,0,VALID,95.2775,VALID,0,VALID,20.1303,VALID,355,VALID,1.95195,
2009-09-24, 01:52:05,VALID,917.534,VALID,0,VALID,95.0183,VALID,0,VALID,20.0913,VALID,351,VALID,2.00859,
2009-09-24, 01:53:05,VALID,917.529,VALID,0,VALID,94.8963,VALID,0,VALID,20.0328,VALID,10,VALID,1.9082,
2009-09-24, 01:54:05,VALID,917.551,VALID,0,VALID,94.8124,VALID,0,VALID,19.9728,VALID,4,VALID,2.03867,
2009-09-24, 01:55:05,VALID,917.562,VALID,0,VALID,94.9649,VALID,0,VALID,19.9533,VALID,29,VALID,1.83438,
2009-09-24, 01:56:05,VALID,917.595,VALID,0,VALID,95.0945,VALID,0,VALID,19.9533,VALID,335,VALID,1.68203,
2009-09-24, 01:57:05,VALID,917.612,VALID,0,VALID,95.2088,VALID,0,VALID,19.9548,VALID,2,VALID,1.7543,
2009-09-24, 01:58:05,VALID,917.673,VALID,0,VALID,95.3079,VALID,0,VALID,19.9548,VALID,2,VALID,0.586719,
2009-09-24, 01:59:05,VALID,917.68,VALID,0,VALID,95.3842,VALID,0,VALID,19.9743,VALID,2,VALID,0.804688,
2009-09-24, 02:00:05,VALID,917.757,VALID,0,VALID,95.3537,VALID,0,VALID,19.9938,VALID,2,VALID,0.515234,
2009-09-24, 02:01:05,VALID,917.796,VALID,0,VALID,95.3994,VALID,0,VALID,19.9728,VALID,2,VALID,0.645312,
2009-09-24, 02:02:05,VALID,917.831,VALID,0,VALID,95.3384,VALID,0,VALID,20.0133,VALID,2,VALID,0.374609,
2009-09-24, 02:03:05,VALID,917.865,VALID,0,VALID,95.2927,VALID,0,VALID,20.0328,VALID,2,VALID,0.642969,
2009-09-24, 02:04:05,VALID,917.906,VALID,0,VALID,95.3308,VALID,0,VALID,20.0718,VALID,2,VALID,0.488281,
2009-09-24, 02:05:05,VALID,917.951,VALID,0,VALID,94.9496,VALID,0,VALID,20.0913,VALID,2,VALID,0.502344,
2009-09-24, 02:06:05,VALID,917.942,VALID,0,VALID,94.8505,VALID,0,VALID,20.1303,VALID,2,VALID,0.487891,
2009-09-24, 02:07:05,VALID,917.929,VALID,0,VALID,94.5685,VALID,0,VALID,20.1288,VALID,2,VALID,0.776172,
2009-09-24, 02:08:05,VALID,917.901,VALID,0,VALID,94.4846,VALID,0,VALID,20.2083,VALID,2,VALID,0.390234,
2009-09-24, 02:09:05,VALID,917.895,VALID,0,VALID,94.294,VALID,0,VALID,20.2083,VALID,2,VALID,0.253906,
2009-09-24, 02:10:05,VALID,917.925,VALID,0,VALID,94.1416,VALID,0,VALID,20.2473,VALID,2,VALID,0.417969,
2009-09-24, 02:11:05,VALID,917.917,VALID,0,VALID,94.1111,VALID,0,VALID,20.2473,VALID,2,VALID,0.378516,
2009-09-24, 02:12:05,VALID,917.948,VALID,0,VALID,94.2102,VALID,0,VALID,20.2668,VALID,2,VALID,0.14375,
2009-09-24, 02:13:05,VALID,917.936,VALID,0,VALID,94.1111,VALID,0,VALID,20.2863,VALID,2,VALID,0.162891,
2009-09-24, 02:14:05,VALID,917.962,VALID,0,VALID,94.012,VALID,0,VALID,20.2848,VALID,2,VALID,0.211719,
2009-09-24, 02:15:05,VALID,917.964,VALID,0,VALID,93.89,VALID,0,VALID,20.3253,VALID,2,VALID,0,
2009-09-24, 02:16:05,VALID,917.925,VALID,0,VALID,93.7299,VALID,0,VALID,20.3253,VALID,2,VALID,0.313281,
2009-09-24, 02:17:05,VALID,917.933,VALID,0,VALID,93.768,VALID,0,VALID,20.3448,VALID,2,VALID,0.214062,
2009-09-24, 02:18:05,VALID,917.899,VALID,0,VALID,93.6842,VALID,0,VALID,20.3253,VALID,2,VALID,0.280859,
2009-09-24, 02:19:05,VALID,917.876,VALID,0,VALID,93.5317,VALID,0,VALID,20.3448,VALID,2,VALID,0.579297,
2009-09-24, 02:20:05,VALID,917.828,VALID,0,VALID,93.8747,VALID,0,VALID,20.3643,VALID,2,VALID,0.646484,
2009-09-24, 02:21:05,VALID,917.812,VALID,0,VALID,93.8595,VALID,0,VALID,20.3448,VALID,2,VALID,0.472266,
2009-09-24, 02:22:05,VALID,917.827,VALID,0,VALID,93.768,VALID,0,VALID,20.3253,VALID,2,VALID,0.493359,
2009-09-24, 02:23:05,VALID,917.799,VALID,0,VALID,93.9586,VALID,0,VALID,20.3058,VALID,2,VALID,0.425391,
2009-09-24, 02:24:05,VALID,917.805,VALID,0,VALID,93.9129,VALID,0,VALID,20.2473,VALID,2,VALID,0.757813,
2009-09-24, 02:25:05,VALID,917.842,VALID,0,VALID,94.0501,VALID,0,VALID,20.2278,VALID,2,VALID,0.666797,
2009-09-24, 02:26:05,VALID,917.828,VALID,0,VALID,94.2712,VALID,0,VALID,20.2278,VALID,2,VALID,0.585547,
2009-09-24, 02:27:05,VALID,917.85,VALID,0,VALID,94.4313,VALID,0,VALID,20.2278,VALID,2,VALID,0.198437,
2009-09-24, 02:28:05,VALID,917.844,VALID,0,VALID,94.3855,VALID,0,VALID,20.2278,VALID,2,VALID,0.595312,
2009-09-24, 02:29:05,VALID,917.848,VALID,0,VALID,94.233,VALID,0,VALID,20.1873,VALID,2,VALID,1.10039,
2009-09-24, 02:30:05,VALID,917.863,VALID,0,VALID,94.2864,VALID,0,VALID,20.2278,VALID,2,VALID,0.738281,
2009-09-24, 02:31:05,VALID,917.892,VALID,0,VALID,94.3931,VALID,0,VALID,20.2293,VALID,2,VALID,0.465234,
2009-09-24, 02:32:05,VALID,917.885,VALID,0,VALID,94.599,VALID,0,VALID,20.2068,VALID,2,VALID,0.451172,
2009-09-24, 02:33:05,VALID,917.847,VALID,0,VALID,94.8658,VALID,0,VALID,20.2473,VALID,2,VALID,0.358984,
2009-09-24, 02:34:05,VALID,917.842,VALID,0,VALID,95.0564,VALID,0,VALID,20.2473,VALID,2,VALID,0.413672,
2009-09-24, 02:35:05,VALID,917.849,VALID,0,VALID,94.9954,VALID,0,VALID,20.2473,VALID,2,VALID,0.446875,
2009-09-24, 02:36:05,VALID,917.834,VALID,0,VALID,95.0411,VALID,0,VALID,20.2473,VALID,2,VALID,0.346094,
2009-09-24, 02:37:05,VALID,917.805,VALID,0,VALID,95.186,VALID,0.107441,VALID,20.2442,VALID,2,VALID,0.0964844,
2009-09-24, 02:38:05,VALID,917.816,VALID,0,VALID,95.1479,VALID,0,VALID,20.2653,VALID,2,VALID,0.420312,
2009-09-24, 02:39:05,VALID,917.809,VALID,0,VALID,95.1783,VALID,0,VALID,20.2653,VALID,2,VALID,0.157422,
2009-09-24, 02:40:05,VALID,917.789,VALID,0,VALID,95.2241,VALID,0,VALID,20.2637,VALID,2,VALID,0,
2009-09-24, 02:41:05,VALID,917.784,VALID,0,VALID,95.1783,VALID,0.107441,VALID,20.2653,VALID,2,VALID,0.212891,
2009-09-24, 02:42:05,VALID,917.771,VALID,0,VALID,95.125,VALID,0.107441,VALID,20.2653,VALID,2,VALID,0.5125,
2009-09-24, 02:43:05,VALID,917.746,VALID,0,VALID,95.125,VALID,0,VALID,20.2653,VALID,2,VALID,0.276563,
2009-09-24, 02:44:05,VALID,917.76,VALID,0,VALID,95.1783,VALID,0.107441,VALID,20.2247,VALID,2,VALID,0.3625,
2009-09-24, 02:45:05,VALID,917.761,VALID,0,VALID,95.125,VALID,0.107441,VALID,20.2458,VALID,2,VALID,0.553906,
2009-09-24, 02:46:05,VALID,917.773,VALID,0,VALID,95.1402,VALID,0.107441,VALID,20.2653,VALID,2,VALID,0.830078,
2009-09-24, 02:47:05,VALID,917.78,VALID,0,VALID,95.0869,VALID,0.107441,VALID,20.2247,VALID,2,VALID,1.01328,
2009-09-24, 02:48:05,VALID,917.798,VALID,0,VALID,95.1479,VALID,0,VALID,20.2263,VALID,2,VALID,1.06523,
2009-09-24, 02:49:05,VALID,917.787,VALID,0,VALID,95.1707,VALID,0.107441,VALID,20.2263,VALID,2,VALID,1.16484,
2009-09-24, 02:50:05,VALID,917.747,VALID,0,VALID,95.2622,VALID,0.107441,VALID,20.2458,VALID,3,VALID,1.0293,
2009-09-24, 02:51:05,VALID,917.739,VALID,0,VALID,95.1783,VALID,0,VALID,20.2458,VALID,3,VALID,0.983203,
2009-09-24, 02:52:05,VALID,917.771,VALID,0,VALID,94.9649,VALID,0,VALID,20.2263,VALID,3,VALID,0.602344,
2009-09-24, 02:53:05,VALID,917.803,VALID,0,VALID,95.0792,VALID,0,VALID,20.2068,VALID,3,VALID,0.86875,
2009-09-24, 02:54:05,VALID,917.832,VALID,0,VALID,95.1555,VALID,0,VALID,20.2068,VALID,3,VALID,0.672266,
2009-09-24, 02:55:05,VALID,917.841,VALID,0,VALID,95.186,VALID,0,VALID,20.1678,VALID,3,VALID,0.941016,
2009-09-24, 02:56:05,VALID,917.881,VALID,0,VALID,95.2546,VALID,0,VALID,20.1288,VALID,3,VALID,0.925781,
2009-09-24, 02:57:05,VALID,917.938,VALID,0,VALID,95.4223,VALID,0,VALID,20.1303,VALID,3,VALID,0.794531,
2009-09-24, 02:58:05,VALID,917.951,VALID,0,VALID,95.5976,VALID,0,VALID,20.0898,VALID,3,VALID,0.719531,
2009-09-24, 02:59:05,VALID,917.99,VALID,0,VALID,95.7654,VALID,0,VALID,20.1093,VALID,3,VALID,0.69375,
2009-09-24, 03:00:05,VALID,917.997,VALID,0,VALID,95.8721,VALID,0,VALID,20.1288,VALID,3,VALID,0.285156,
2009-09-24, 03:01:05,VALID,918.016,VALID,0,VALID,95.7958,VALID,0,VALID,20.1678,VALID,3,VALID,0.342969,
2009-09-24, 03:02:05,VALID,917.993,VALID,0,VALID,95.712,VALID,0,VALID,20.1873,VALID,3,VALID,0.159766,
2009-09-24, 03:03:05,VALID,918.001,VALID,0,VALID,95.5214,VALID,0,VALID,20.1873,VALID,3,VALID,0.614453,
2009-09-24, 03:04:05,VALID,917.966,VALID,0,VALID,95.5671,VALID,0,VALID,20.2068,VALID,3,VALID,0.727344,
2009-09-24, 03:05:05,VALID,917.962,VALID,0,VALID,95.3003,VALID,0,VALID,20.2263,VALID,3,VALID,0.561719,
2009-09-24, 03:06:05,VALID,917.986,VALID,0,VALID,95.1707,VALID,0,VALID,20.2068,VALID,3,VALID,0.739062,
2009-09-24, 03:07:05,VALID,917.964,VALID,0,VALID,95.2088,VALID,0.107441,VALID,20.2263,VALID,3,VALID,0.728516,
2009-09-24, 03:08:05,VALID,917.971,VALID,0,VALID,95.1326,VALID,0,VALID,20.2263,VALID,3,VALID,0.780859,
2009-09-24, 03:09:05,VALID,917.95,VALID,0,VALID,95.1631,VALID,0,VALID,20.2263,VALID,3,VALID,0.871484,
2009-09-24, 03:10:05,VALID,917.942,VALID,0,VALID,95.2622,VALID,0,VALID,20.2278,VALID,3,VALID,0.900781,
2009-09-24, 03:11:05,VALID,917.967,VALID,0,VALID,95.3156,VALID,0,VALID,20.2068,VALID,3,VALID,0.85625,
2009-09-24, 03:12:05,VALID,917.932,VALID,0,VALID,95.3994,VALID,0,VALID,20.1873,VALID,3,VALID,1.0418,
2009-09-24, 03:13:05,VALID,917.907,VALID,0,VALID,95.3613,VALID,0,VALID,20.1678,VALID,3,VALID,1.08438,
2009-09-24, 03:14:05,VALID,917.904,VALID,0,VALID,95.3537,VALID,0.107441,VALID,20.1678,VALID,3,VALID,0.990625,
2009-09-24, 03:15:05,VALID,917.981,VALID,0,VALID,95.4223,VALID,0,VALID,20.1288,VALID,3,VALID,1.06719,
2009-09-24, 03:16:05,VALID,917.972,VALID,0,VALID,95.5062,VALID,0,VALID,20.1483,VALID,3,VALID,1.20234,
2009-09-24, 03:17:05,VALID,918.008,VALID,0,VALID,95.5214,VALID,0,VALID,20.1288,VALID,3,VALID,1.03672,
2009-09-24, 03:18:05,VALID,918.002,VALID,0,VALID,95.7349,VALID,0,VALID,20.1093,VALID,3,VALID,1.00859,
2009-09-24, 03:19:05,VALID,917.967,VALID,0,VALID,95.8187,VALID,0,VALID,20.1093,VALID,303,VALID,0.898438,
2009-09-24, 03:20:05,VALID,917.979,VALID,0,VALID,95.9102,VALID,0,VALID,20.1093,VALID,303,VALID,0.669141,
2009-09-24, 03:21:05,VALID,917.939,VALID,0,VALID,95.895,VALID,0,VALID,20.1303,VALID,303,VALID,0.691406,
2009-09-24, 03:22:05,VALID,917.911,VALID,0,VALID,95.7501,VALID,0,VALID,20.1093,VALID,304,VALID,1.22031,
2009-09-24, 03:23:05,VALID,917.895,VALID,0,VALID,95.6434,VALID,0,VALID,20.1498,VALID,304,VALID,1.23125,
2009-09-24, 03:24:05,VALID,917.907,VALID,0,VALID,95.712,VALID,0,VALID,20.1483,VALID,304,VALID,1.07344,
2009-09-24, 03:25:05,VALID,917.878,VALID,0,VALID,95.6891,VALID,0,VALID,20.1498,VALID,304,VALID,0.661328,
2009-09-24, 03:26:05,VALID,917.858,VALID,0,VALID,95.8416,VALID,0,VALID,20.1678,VALID,304,VALID,0.664063,
2009-09-24, 03:27:05,VALID,917.881,VALID,0,VALID,95.8492,VALID,0,VALID,20.1483,VALID,304,VALID,0.496875,
2009-09-24, 03:28:05,VALID,917.888,VALID,0,VALID,95.9483,VALID,0,VALID,20.1678,VALID,304,VALID,0.388672,
2009-09-24, 03:29:05,VALID,917.931,VALID,0,VALID,95.7882,VALID,0,VALID,20.1888,VALID,304,VALID,0.533203,
2009-09-24, 03:30:05,VALID,917.916,VALID,0,VALID,95.8263,VALID,0,VALID,20.1888,VALID,304,VALID,0.649609,
2009-09-24, 03:31:05,VALID,917.889,VALID,0,VALID,95.8492,VALID,0,VALID,20.1678,VALID,304,VALID,0.385156,
2009-09-24, 03:32:05,VALID,917.905,VALID,0,VALID,95.8416,VALID,0,VALID,20.1873,VALID,304,VALID,0.434766,
2009-09-24, 03:33:05,VALID,917.903,VALID,0,VALID,95.8645,VALID,0,VALID,20.2068,VALID,304,VALID,0.7,
2009-09-24, 03:34:05,VALID,917.904,VALID,0,VALID,95.7425,VALID,0,VALID,20.2278,VALID,304,VALID,0.194531,
2009-09-24, 03:35:04,VALID,917.932,VALID,0,VALID,95.7425,VALID,0,VALID,20.2263,VALID,304,VALID,0.575,
2009-09-24, 03:36:04,VALID,917.917,VALID,0,VALID,95.6891,VALID,0,VALID,20.2263,VALID,304,VALID,0.398047,
2009-09-24, 03:37:04,VALID,917.926,VALID,0,VALID,95.7425,VALID,0,VALID,20.2278,VALID,304,VALID,0.341016,
2009-09-24, 03:38:04,VALID,917.91,VALID,0,VALID,95.7577,VALID,0,VALID,20.2473,VALID,304,VALID,0.155469,
2009-09-24, 03:39:04,VALID,917.877,VALID,0,VALID,95.6891,VALID,0,VALID,20.2489,VALID,304,VALID,0.314063,
2009-09-24, 03:40:04,VALID,917.883,VALID,0,VALID,95.5976,VALID,0,VALID,20.2489,VALID,304,VALID,0.69375,
2009-09-24, 03:41:04,VALID,917.811,VALID,0,VALID,95.5519,VALID,0,VALID,20.2278,VALID,304,VALID,0.842578,
2009-09-24, 03:42:04,VALID,917.814,VALID,0,VALID,95.5367,VALID,0,VALID,20.2083,VALID,304,VALID,0.515625,
2009-09-24, 03:43:04,VALID,917.825,VALID,0,VALID,95.4528,VALID,0,VALID,20.2083,VALID,304,VALID,0.589063,
2009-09-24, 03:44:04,VALID,917.816,VALID,0,VALID,95.4985,VALID,0,VALID,20.1888,VALID,304,VALID,0.194531,
2009-09-24, 03:45:04,VALID,917.813,VALID,0,VALID,95.4985,VALID,0,VALID,20.1888,VALID,304,VALID,0.581641,